• In Belarus
  • List of Countries
  • For 7 days
  • Water Temperature
  • Satellite Maps
  • Weather Map
  • Weather Widgets
  • user-avatar
    Login

    Hourly Weather Uyna

    Today, 23 November, Thursday

    Time Temperature Precipitation Wind Pressure Humidity
    00:00 +21°C° 0.9 mm 0 mps 740 mmHg 99%
    01:00 +21°C° 0.3 mm 0 mps 740 mmHg 99%
    02:00 +21°C° 0.3 mm 0 mps 739 mmHg 99%
    03:00 +20°C° 0.3 mm 0 mps 739 mmHg 99%
    04:00 +20°C° 0 mm 0 mps 739 mmHg 99%
    05:00 +20°C° 0 mm 0 mps 739 mmHg 99%
    06:00 +20°C° 0 mm 0 mps 740 mmHg 99%
    07:00 +24°C° 0 mm 1 mps 740 mmHg 91%
    08:00 +25°C° 0 mm 1 mps 740 mmHg 84%
    09:00 +27°C° 0 mm 1 mps 741 mmHg 77%
    10:00 +29°C° 0 mm 1 mps 740 mmHg 66%
    11:00 +31°C° 0 mm 1 mps 740 mmHg 55%
    12:00 +32°C° 0 mm 1 mps 740 mmHg 44%
    13:00 +32°C° 0 mm 1 mps 739 mmHg 45%
    14:00 +32°C° 0 mm 1 mps 738 mmHg 45%
    15:00 +32°C° 0 mm 1 mps 737 mmHg 46%
    16:00 +30°C° 0 mm 1 mps 738 mmHg 55%
    17:00 +28°C° 0 mm 1 mps 738 mmHg 64%
    18:00 +26°C° 0 mm 1 mps 739 mmHg 73%
    19:00 +26°C° 0 mm 1 mps 739 mmHg 77%
    20:00 +25°C° 0 mm 1 mps 740 mmHg 80%
    21:00 +23°C° 0 mm 0 mps 740 mmHg 84%
    22:00 +22°C° 0 mm 0 mps 740 mmHg 88%
    23:00 +21°C° 0 mm 0 mps 740 mmHg 91%

    Tomorrow, 24 November, Friday

    Time Temperature Precipitation Wind Pressure Humidity
    00:00 +21°C° 0 mm 0 mps 740 mmHg 94%
    01:00 +20°C° 0 mm 0 mps 740 mmHg 95%
    02:00 +20°C° 0 mm 0 mps 740 mmHg 97%
    03:00 +19°C° 0 mm 0 mps 739 mmHg 98%
    04:00 +19°C° 0 mm 0 mps 739 mmHg 98%
    05:00 +19°C° 0 mm 0 mps 740 mmHg 99%
    06:00 +19°C° 0 mm 0 mps 740 mmHg 99%
    07:00 +23°C° 0 mm 1 mps 740 mmHg 86%
    08:00 +26°C° 0 mm 1 mps 741 mmHg 73%
    09:00 +28°C° 0 mm 1 mps 741 mmHg 61%
    10:00 +30°C° 0 mm 1 mps 741 mmHg 55%
    11:00 +31°C° 0 mm 1 mps 740 mmHg 50%
    12:00 +32°C° 0 mm 2 mps 740 mmHg 45%
    13:00 +32°C° 0 mm 2 mps 739 mmHg 49%
    14:00 +32°C° 0 mm 2 mps 739 mmHg 52%
    15:00 +31°C° 0 mm 2 mps 738 mmHg 56%
    16:00 +29°C° 0.1 mm 2 mps 738 mmHg 66%
    17:00 +27°C° 0.1 mm 1 mps 739 mmHg 76%
    18:00 +25°C° 0.1 mm 1 mps 739 mmHg 86%
    19:00 +24°C° 0 mm 1 mps 740 mmHg 89%
    20:00 +23°C° 0 mm 1 mps 741 mmHg 92%
    21:00 +22°C° 0 mm 1 mps 741 mmHg 95%
    22:00 +20°C° 0 mm 0 mps 741 mmHg 96%
    23:00 +20°C° 0 mm 0 mps 741 mmHg 96%

    Day after tomorrow, 25 November, Saturday

    Time Temperature Precipitation Wind Pressure Humidity
    00:00 +19°C° 0 mm 0 mps 741 mmHg 97%
    01:00 +19°C° 0 mm 0 mps 741 mmHg 97%
    02:00 +19°C° 0 mm 0 mps 740 mmHg 97%
    03:00 +18°C° 0 mm 0 mps 740 mmHg 98%
    04:00 +18°C° 0 mm 0 mps 740 mmHg 97%
    05:00 +20°C° 0 mm 1 mps 740 mmHg 97%
    06:00 +20°C° 0 mm 1 mps 741 mmHg 97%
    07:00 +23°C° 0 mm 1 mps 741 mmHg 84%
    08:00 +25°C° 0 mm 1 mps 742 mmHg 72%
    09:00 +28°C° 0 mm 1 mps 742 mmHg 59%
    10:00 +29°C° 0 mm 1 mps 741 mmHg 55%
    11:00 +31°C° 0 mm 1 mps 741 mmHg 50%
    12:00 +32°C° 0 mm 2 mps 740 mmHg 46%
    13:00 +32°C° 0 mm 2 mps 740 mmHg 48%
    14:00 +32°C° 0 mm 2 mps 739 mmHg 50%
    15:00 +32°C° 0 mm 2 mps 738 mmHg 52%
    16:00 +30°C° 0 mm 2 mps 739 mmHg 60%
    17:00 +28°C° 0 mm 1 mps 739 mmHg 69%
    18:00 +26°C° 0 mm 1 mps 740 mmHg 77%
    19:00 +25°C° 0 mm 1 mps 740 mmHg 82%
    20:00 +24°C° 0 mm 1 mps 741 mmHg 86%
    21:00 +21°C° 0 mm 0 mps 741 mmHg 90%
    22:00 +21°C° 0 mm 0 mps 741 mmHg 92%
    23:00 +20°C° 0 mm 0 mps 741 mmHg 93%

    26 November, Sunday

    Time Temperature Precipitation Wind Pressure Humidity
    00:00 +20°C° 0 mm 0 mps 741 mmHg 95%
    01:00 +19°C° 0 mm 0 mps 740 mmHg 95%
    02:00 +19°C° 0 mm 0 mps 740 mmHg 95%
    03:00 +19°C° 0 mm 0 mps 740 mmHg 96%
    04:00 +19°C° 0 mm 0 mps 740 mmHg 96%
    05:00 +19°C° 0 mm 0 mps 740 mmHg 96%
    06:00 +19°C° 0 mm 0 mps 741 mmHg 96%
    07:00 +23°C° 0 mm 1 mps 741 mmHg 85%
    08:00 +26°C° 0 mm 1 mps 742 mmHg 74%
    09:00 +28°C° 0 mm 1 mps 742 mmHg 62%
    10:00 +29°C° 0 mm 2 mps 741 mmHg 61%
    11:00 +30°C° 0 mm 2 mps 740 mmHg 59%
    12:00 +31°C° 0 mm 2 mps 740 mmHg 57%
    13:00 +30°C° 0.5 mm 2 mps 739 mmHg 64%
    14:00 +29°C° 0.5 mm 2 mps 739 mmHg 71%
    15:00 +28°C° 0.5 mm 2 mps 738 mmHg 78%
    16:00 +27°C° 0.2 mm 2 mps 739 mmHg 84%
    17:00 +25°C° 0.2 mm 1 mps 739 mmHg 90%
    18:00 +24°C° 0.2 mm 1 mps 740 mmHg 96%
    19:00 +23°C° 0 mm 1 mps 740 mmHg 96%
    20:00 +23°C° 0 mm 1 mps 741 mmHg 97%
    21:00 +22°C° 0 mm 1 mps 741 mmHg 98%
    22:00 +22°C° 0 mm 1 mps 741 mmHg 98%
    23:00 +22°C° 0 mm 1 mps 740 mmHg 99%

    27 November, Monday

    Time Temperature Precipitation Wind Pressure Humidity
    00:00 +21°C° 0 mm 1 mps 740 mmHg 99%
    01:00 +21°C° 0 mm 1 mps 740 mmHg 99%
    02:00 +21°C° 0 mm 1 mps 740 mmHg 99%
    03:00 +21°C° 0 mm 1 mps 739 mmHg 99%
    04:00 +21°C° 0 mm 1 mps 740 mmHg 99%
    05:00 +20°C° 0 mm 1 mps 740 mmHg 99%
    06:00 +20°C° 0 mm 1 mps 740 mmHg 99%
    07:00 +22°C° 0 mm 1 mps 740 mmHg 88%
    08:00 +24°C° 0 mm 1 mps 741 mmHg 78%
    09:00 +26°C° 0 mm 2 mps 741 mmHg 68%
    10:00 +28°C° 0 mm 2 mps 740 mmHg 62%
    11:00 +29°C° 0 mm 2 mps 740 mmHg 57%
    12:00 +30°C° 0 mm 2 mps 739 mmHg 51%
    13:00 +30°C° 0 mm 2 mps 739 mmHg 53%
    14:00 +30°C° 0 mm 2 mps 738 mmHg 55%
    15:00 +29°C° 0 mm 2 mps 738 mmHg 57%
    16:00 +28°C° 0 mm 2 mps 738 mmHg 64%
    17:00 +26°C° 0 mm 1 mps 739 mmHg 71%
    18:00 +24°C° 0 mm 1 mps 739 mmHg 78%
    19:00 +23°C° 0 mm 1 mps 740 mmHg 82%
    20:00 +22°C° 0 mm 1 mps 740 mmHg 86%
    21:00 +19°C° 0 mm 0 mps 741 mmHg 90%
    22:00 +19°C° 0 mm 0 mps 740 mmHg 92%
    23:00 +20°C° 0 mm 1 mps 740 mmHg 93%

    28 November, Tuesday

    Time Temperature Precipitation Wind Pressure Humidity
    00:00 +20°C° 0 mm 1 mps 740 mmHg 95%
    01:00 +20°C° 0 mm 1 mps 740 mmHg 96%
    02:00 +19°C° 0 mm 1 mps 739 mmHg 96%
    03:00 +19°C° 0 mm 1 mps 739 mmHg 97%
    04:00 +19°C° 0 mm 1 mps 740 mmHg 97%
    05:00 +19°C° 0 mm 1 mps 740 mmHg 97%
    06:00 +18°C° 0 mm 1 mps 740 mmHg 98%
    07:00 +21°C° 0 mm 1 mps 740 mmHg 83%
    08:00 +24°C° 0 mm 1 mps 741 mmHg 68%
    09:00 +27°C° 0 mm 1 mps 741 mmHg 53%
    10:00 +28°C° 0 mm 1 mps 741 mmHg 50%
    11:00 +30°C° 0 mm 1 mps 740 mmHg 46%
    12:00 +31°C° 0 mm 2 mps 739 mmHg 43%
    13:00 +31°C° 0 mm 2 mps 739 mmHg 44%
    14:00 +32°C° 0 mm 2 mps 739 mmHg 46%
    15:00 +32°C° 0 mm 2 mps 738 mmHg 48%
    16:00 +29°C° 0 mm 1 mps 739 mmHg 58%
    17:00 +27°C° 0 mm 1 mps 739 mmHg 68%
    18:00 +25°C° 0 mm 1 mps 739 mmHg 78%
    19:00 +24°C° 0 mm 1 mps 740 mmHg 82%
    20:00 +23°C° 0 mm 1 mps 740 mmHg 87%
    21:00 +21°C° 0 mm 0 mps 741 mmHg 92%
    22:00 +20°C° 0 mm 0 mps 741 mmHg 93%
    23:00 +20°C° 0 mm 0 mps 740 mmHg 95%
    Show more